GW4190 Weather Reports


time (UTC)temp
F
wind
direction
speed
knots
gust
knots
rain 1hr
in
rain 24hr
in
rain mn
in
humidity
%
barometer
mb
20260504193056 39 275 10.4 25.2 0.00 0.02 0.02 99 1003.6
20260504191602 38 296 11.3 23.5 0.00 0.02 0.02 99 1003.4
20260504190112 37 265 12.2 22.6 0.00 0.02 0.02 99 1003.4
20260504184555 37 288 11.3 19.1 0.00 0.02 0.02 99 1003.5
20260504183101 37 263 12.2 20.9 0.00 0.02 0.02 99 1003.5
20260504181557 36 242 12.2 20.9 0.01 0.02 0.02 99 1003.6
20260504180059 36 253 11.3 25.2 0.01 0.02 0.02 99 1003.5
20260504174554 36 276 10.4 20.0 0.01 0.02 0.02 99 1003.5
20260504173054 36 275 7.8 19.1 0.01 0.02 0.02 99 1003.6
20260504171557 36 261 11.3 20.9 0.00 0.01 0.01 99 1003.5
20260504081556 28 290 7.0 14.8 0.00 0.01 0.00 82 1003.3
20260504080106 28 271 5.2 13.0 0.00 0.01 0.00 82 1003.2
20260504050105 27 117 4.3 13.0 0.00 0.01 0.00 86 1002.5
20260504044600 28 236 6.1 14.8 0.00 0.01 0.00 86 1002.7
20260504043055 27 151 6.1 13.9 0.00 0.01 0.00 86 1002.6
20260504041601 28 134 5.2 10.4 0.00 0.01 0.00 86 1002.6
20260504040057 28 99 5.2 14.8 0.00 0.01 0.00 86 1002.5
20260504034557 27 346 6.1 12.2 0.00 0.01 0.01 87 1002.2
20260504033054 27 129 6.1 13.9 0.00 0.01 0.01 87 1002.0
20260504031553 27 155 5.2 12.2 0.00 0.01 0.01 87 1002.1
20260504030100 27 288 6.1 13.9 0.00 0.01 0.01 86 1002.2
20260504024617 27 313 6.1 13.9 0.00 0.01 0.01 86 1002.1
20260504023059 27 171 6.1 14.8 0.00 0.01 0.01 86 1002.2
20260504021557 27 42 5.2 13.0 0.00 0.01 0.01 86 1002.3
20260504020057 27 118 6.1 13.0 0.00 0.01 0.01 87 1002.2
20260504014601 28 129 6.1 13.9 0.00 0.01 0.01 86 1002.2
20260504013058 28 104 7.0 14.8 0.00 0.01 0.01 86 1002.2
20260504011555 27 273 5.2 18.2 0.00 0.01 0.01 87 1002.2
20260504010057 27 155 6.1 13.9 0.00 0.01 0.01 86 1002.3
20260504004554 28 145 7.0 19.1 0.00 0.01 0.01 85 1001.8
20260504003057 28 191 7.0 17.4 0.00 0.01 0.01 85 1001.6
20260504001554 28 57 7.0 13.9 0.00 0.01 0.01 85 1001.6
20260504000128 29 164 7.0 13.0 0.00 0.01 0.01 83 1001.5
20260503234601 29 79 7.8 18.2 0.00 0.01 0.01 82 1001.3
20260503233053 30 77 7.8 21.7 0.00 0.01 0.01 80 1001.2
20260503231553 30 253 7.8 19.1 0.00 0.01 0.01 80 1001.2
20260503230054 30 256 6.1 12.2 0.00 0.01 0.01 81 1001.3
20260503224556 30 300 7.0 17.4 0.00 0.01 0.01 80 1001.1
20260503223057 31 107 7.0 17.4 0.00 0.01 0.01 79 1001.0
20260503221558 31 127 7.8 19.1 0.00 0.01 0.01 80 1000.9
20260503220056 31 104 7.0 20.0 0.00 0.01 0.01 80 1000.8
20260503214552 31 248 7.0 16.5 0.00 0.01 0.01 81 1000.8
20260503213107 31 106 6.1 14.8 0.00 0.01 0.01 81 1001.1
20260503211613 31 158 7.0 19.1 0.00 0.01 0.01 80 1001.1
20260503210055 32 111 7.8 15.6 0.00 0.01 0.01 81 1000.9
20260503204555 32 224 7.8 21.7 0.00 0.01 0.01 81 1000.6
20260503203107 32 194 8.7 18.2 0.00 0.01 0.01 83 1000.7
20260503201556 32 210 7.0 17.4 0.00 0.01 0.01 84 1000.9
20260503200053 32 250 7.0 13.9 0.00 0.01 0.01 86 1000.9
20260503194603 32 5 7.0 14.8 0.00 0.02 0.01 88 1001.1